586  
ASUS46 KPQR 180210  
RWROR  
 
OREGON REGIONAL WEATHER ROUNDUP  
NATIONAL WEATHER SERVICE PORTLAND OR  
700 PM PDT TUE JUL 17 2018  
 
NOTE: "FAIR" INDICATES FEW OR NO CLOUDS BELOW 12,000 FEET WITH  
NO SIGNIFICANT WEATHER AND/OR S TO VISIBILITY
.  
 
ORZ001>013-180300-  
NORTHWEST OREGON  
 
 
CITY SKY/WX TMP DP RH WIND PRES REMARKS
 
ASTORIA CLOUDY 62 58 86 W6 30.12S  
TILLAMOOK CLOUDY 64 55 72 W12 30.14S  
NEWPORT CLOUDY 59 55 88 NW3 30.16S FOG  
PORTLAND SUNNY 85 56 37 N7 29.99R  
VANCOUVER WA SUNNY 84 57 39 N9 29.99R  
SCAPPOOSE SUNNY 80 58 46 N10 30.00R  
HILLSBORO SUNNY 86 55 34 NW14 29.99R  
AURORA SUNNY 87 51 28 SW7 30.00S  
MCMINNVILLE SUNNY 79 57 46 SW14 29.99S  
SALEM SUNNY 84 48 28 W15 30.00S  
CORVALLIS SUNNY 76 55 48 NW21 30.03S  
EUGENE SUNNY 87 51 28 VRB7G16 30.01S  

 
 
ORZ021-028-180300-  
SOUTHWEST OREGON  
 
 
CITY SKY/WX TMP DP RH WIND PRES REMARKS
 
NORTH BEND CLOUDY 63 55 77 N15 30.14S  
BROOKINGS SUNNY 65 56 72 SE6 30.02F  
ROSEBURG SUNNY 89 40 17 N9 30.01R  
SEXTON SUMMIT SUNNY 80 52 37 VRB3 30.16S  
GRANTS PASS FAIR 97 48 19 N15G21 29.97S HX 93  
MEDFORD SUNNY 98 45 16 N16 29.93S HX 94  

 
 
ORZ014>016-041-180300-  
COLUMBIA GORGE  
 
 
CITY SKY/WX TMP DP RH WIND PRES REMARKS
 
TROUTDALE SUNNY 88 54 31 NW7 29.97S  
HOOD RIVER SUNNY 88 43 20 W7 29.95S  
THE DALLES SUNNY 93 41 16 W14G25 29.89R  

 
 
ORZ029>031-041-044-049-050-061>064-502-503-505>511-180300-  
EASTERN OREGON  
 
 
CITY SKY/WX TMP DP RH WIND PRES REMARKS
 
MADRAS SUNNY 91 28 10 SW15G22 30.03R  
REDMOND SUNNY 92 27 9 NW17G25 30.04R  
BEND SUNNY 93 32 11 SW14 30.06R  
PRINEVILLE SUNNY 90 19 7 W18 30.06R  
KLAMATH FALLS SUNNY 90 33 13 NW20 30.11S  
LAKEVIEW SUNNY 89 38 16 SW10 30.15S  
HERMISTON SUNNY 99 37 11 W15 29.82S HX 94  
PENDLETON SUNNY 96 34 11 W13 29.90S HX 91  
JOHN DAY SUNNY 94 36 13 NW12 30.03S  
MEACHAM SUNNY 86 37 17 CALM 30.07S  
LA GRANDE SUNNY 93 46 19 N9 29.97R  
BAKER CITY SUNNY 92 49 22 NW6 30.01F  
BURNS SUNNY 93 33 12 W5 30.06F  
ROME N/A N/A N/A N/A W8G21 30.04F  
ONTARIO SUNNY 96 48 19 E5 29.92F HX 92  

 
 
 
CLICK HERE TO GO TO PREVIOUS BULLETINS.

The Nexlab OR Page Main Text Page